This demonstration page uses our WeatherBlox Daily Observations layout. Learn more.

Left ArrowRight Arrow

41.86663, -103.66717

Hourly Observations for October 16, 2021

Temp ( °F °C ) Dew Point ( °F °C ) Humidity (%) Winds ( mph kmh ) Pressure ( in mb ) Visibility ( mi km ) Precip ( " mm )
12:53 am 00:53 Clear 32 undefined 24 -4.4 73 73 N 3 6 30.27 1025 10 16 N/A
1:53 am 01:53 Clear 33 0.6 25 -3.9 72 72 NNW 7 11 30.28 1025 10 16 N/A
2:53 am 02:53 Clear 33 0.6 25 -3.9 72 72 NW 5 7 30.27 1025 10 16 N/A
3:53 am 03:53 Clear 31 -0.6 25 -3.9 79 79 NW 6 9 30.29 1026 10 16 N/A
4:53 am 04:53 Clear 32 undefined 25 -3.9 75 75 WNW 6 9 30.30 1026 10 16 N/A
5:53 am 05:53 Clear 31 -0.6 25 -3.9 79 79 N 7 11 30.32 1027 10 16 N/A
6:53 am 06:53 Clear 33 0.6 26 -3.3 75 75 NNW 6 9 30.34 1028 10 16 N/A
7:53 am 07:53 Sunny 37 2.8 28 -2.2 70 70 WNW 3 6 30.36 1028 10 16 N/A
8:53 am 08:53 Sunny 45 7.2 31 -0.6 58 58 N N/A 30.36 1028 10 16 N/A
9:53 am 09:53 Sunny 50 10 28 -2.2 43 43 WNW 6 9 30.35 1028 10 16 N/A
10:53 am 10:53 Sunny 57 13.9 29 -1.7 34 34 WNW 9 15 30.34 1027 10 16 N/A
11:53 am 11:53 Sunny 61 16.1 30 -1.1 31 31 VRB 7 11 30.32 1027 10 16 N/A
12:53 pm 12:53 Sunny 64 17.8 29 -1.7 27 27 WNW 8 13 30.29 1026 10 16 N/A
1:53 pm 13:53 Sunny 66 18.9 29 -1.7 25 25 NW 6 9 30.26 1025 10 16 N/A
2:53 pm 14:53 Sunny 67 19.4 30 -1.1 25 25 W 7 11 30.24 1024 10 16 N/A
3:53 pm 15:53 Sunny 67 19.4 30 -1.1 25 25 N N/A 30.24 1024 9 14 N/A
4:53 pm 16:53 Sunny 66 18.9 30 -1.1 26 26 W 3 6 30.22 1024 10 16 N/A
5:53 pm 17:53 Sunny 64 17.8 30 -1.1 28 28 N N/A 30.23 1024 10 16 N/A
6:53 pm 18:53 Clear 52 11.1 33 0.6 49 49 E 5 7 30.26 1025 10 16 N/A
7:53 pm 19:53 Clear 50 10 33 0.6 52 52 N N/A 30.27 1025 10 16 N/A
8:53 pm 20:53 Clear 43 6.1 32 undefined 65 65 ESE 6 9 30.27 1025 10 16 N/A
9:53 pm 21:53 Clear 42 5.6 33 0.6 71 71 E 7 11 30.25 1024 10 16 N/A
10:53 pm 22:53 Clear 40 4.4 32 undefined 73 73 E 5 7 30.22 1024 10 16 N/A
11:53 pm 23:53 Clear 39 3.9 31 -0.6 73 73 ENE 3 6 30.21 1023 10 16 N/A

Powered by AerisWeather